FW2998 Weather Reports


Display with metric or nautical units.
time (UTC)temp
F
wind
direction
speed
MPH
gust
MPH
rain 1hr
in
rain 24hr
in
rain mn
in
humidity
%
barometer
mb
20240619200025 90 97 1.0 3.0 0.00 0.00 0.00 49 1024.3
20240619195521 92 131 1.0 8.0 0.00 0.00 0.00 46 1024.3
20240619195021 91 57 1.0 9.0 0.00 0.00 0.00 45 1024.2
20240619194522 89 79 0.0 9.0 0.00 0.00 0.00 49 1024.4
20240619194021 90 0 1.0 4.0 0.00 0.00 0.00 46 1024.3
20240619193519 90 107 0.0 5.0 0.00 0.00 0.00 50 1024.5
20240619193023 90 86 0.0 6.0 0.00 0.00 0.00 48 1024.5
20240619192520 90 0 0.0 7.0 0.00 0.00 0.00 48 1024.5
20240619192020 89 105 1.0 7.0 0.00 0.00 0.00 49 1024.5
20240619191534 89 11 1.0 7.0 0.00 0.00 0.00 50 1024.6
20240619191020 90 103 1.0 9.0 0.00 0.00 0.00 48 1024.6
20240619190520 90 0 1.0 9.0 0.00 0.00 0.00 48 1024.7
20240619190024 90 0 2.0 9.0 0.00 0.00 0.00 47 1024.7
20240619185524 90 0 1.0 9.0 0.00 0.00 0.00 49 1024.7
20240619185023 89 101 2.0 9.0 0.00 0.00 0.00 49 1024.8
20240619184523 89 0 1.0 6.0 0.00 0.00 0.00 51 1024.8
20240619184023 87 0 0.0 4.0 0.00 0.00 0.00 53 1024.9
20240619183520 88 264 1.0 4.0 0.00 0.00 0.00 53 1025.1
20240619183026 89 0 0.0 3.0 0.00 0.00 0.00 52 1025.0
20240619182520 89 0 0.0 3.0 0.00 0.00 0.00 50 1025.1
20240619182020 89 105 1.0 6.0 0.00 0.00 0.00 50 1025.2
20240619181529 90 0 0.0 6.0 0.00 0.00 0.00 49 1025.2
20240619181020 89 92 1.0 6.0 0.00 0.00 0.00 52 1025.3
20240619180518 88 0 0.0 6.0 0.00 0.00 0.00 52 1025.5
20240619180022 88 94 1.0 6.0 0.00 0.00 0.00 50 1025.5
20240619175520 89 94 2.0 7.0 0.00 0.00 0.00 50 1025.5
20240619175020 90 101 1.0 7.0 0.00 0.00 0.00 48 1025.7
20240619174532 88 45 1.0 11.0 0.00 0.00 0.00 49 1025.6
20240619174018 88 0 1.0 11.0 0.00 0.00 0.00 52 1025.6
20240619173521 89 126 2.0 11.0 0.00 0.00 0.00 50 1025.7
20240619173024 87 24 1.0 6.0 0.00 0.00 0.00 52 1025.7
20240619172519 88 110 0.0 4.0 0.00 0.00 0.00 51 1025.7
20240619172018 87 92 1.0 7.0 0.00 0.00 0.00 53 1025.8
20240619171544 88 0 1.0 7.0 0.00 0.00 0.00 52 1025.8
20240619171020 88 318 1.0 4.0 0.00 0.00 0.00 54 1025.8
20240619170522 88 0 0.0 6.0 0.00 0.00 0.00 53 1025.8
20240619170037 87 333 0.0 6.0 0.00 0.00 0.00 54 1026.0
20240619165518 85 96 1.0 4.0 0.00 0.00 0.00 59 1026.0
20240619165018 85 115 1.0 4.0 0.00 0.00 0.00 55 1026.1
20240619164522 85 111 1.0 4.0 0.00 0.00 0.00 56 1026.1
20240619164019 85 51 0.0 4.0 0.00 0.00 0.00 57 1026.1
20240619163521 84 0 1.0 5.0 0.00 0.00 0.00 57 1026.1
20240619163026 85 95 1.0 5.0 0.00 0.00 0.00 55 1026.3
20240619162518 86 0 0.0 6.0 0.00 0.00 0.00 56 1026.1
20240619162020 86 0 1.0 6.0 0.00 0.00 0.00 56 1026.2
20240619161536 86 130 0.0 5.0 0.00 0.00 0.00 57 1026.2
20240619161021 86 0 1.0 9.0 0.00 0.00 0.00 57 1026.2
20240619160521 85 88 2.0 9.0 0.00 0.00 0.00 58 1026.2
20240619160040 85 101 1.0 7.0 0.00 0.00 0.00 57 1026.2
20240619155518 85 96 1.0 6.0 0.00 0.00 0.00 58 1026.2
20240619155019 85 0 2.0 10.0 0.00 0.00 0.00 57 1026.2
20240619154524 85 130 3.0 10.0 0.00 0.00 0.00 57 1026.2
20240619154018 85 92 1.0 4.0 0.00 0.00 0.00 61 1026.2
20240619153522 83 40 0.0 5.0 0.00 0.00 0.00 63 1026.2
20240619153024 83 0 1.0 7.0 0.00 0.00 0.00 61 1026.3
20240619152518 84 110 1.0 7.0 0.00 0.00 0.00 60 1026.3
20240619152024 83 0 1.0 6.0 0.00 0.00 0.00 60 1026.4
20240619151531 83 0 0.0 4.0 0.00 0.00 0.00 61 1026.3
20240619151018 84 64 1.0 4.0 0.00 0.00 0.00 59 1026.4
20240619150522 84 104 1.0 6.0 0.00 0.00 0.00 59 1026.3
20240619150031 83 0 0.0 9.0 0.00 0.00 0.00 60 1026.4
20240619145522 83 105 1.0 9.0 0.00 0.00 0.00 59 1026.4
20240619145020 84 79 1.0 9.0 0.00 0.00 0.00 58 1026.3
20240619144520 84 0 0.0 6.0 0.00 0.00 0.00 60 1026.3
20240619144019 83 79 0.0 6.0 0.00 0.00 0.00 60 1026.3
20240619143518 83 101 1.0 6.0 0.00 0.00 0.00 61 1026.2
20240619143025 82 0 0.0 6.0 0.00 0.00 0.00 63 1026.2
20240619142522 81 0 1.0 7.0 0.00 0.00 0.00 64 1026.3
20240619142026 81 90 0.0 7.0 0.00 0.00 0.00 66 1026.3
20240619141535 81 110 0.0 4.0 0.00 0.00 0.00 65 1026.2
20240619141020 81 117 0.0 6.0 0.00 0.00 0.00 66 1026.3
20240619140522 80 235 1.0 6.0 0.00 0.00 0.00 68 1026.4
20240619140027 80 0 0.0 4.0 0.00 0.00 0.00 69 1026.2
20240619135524 80 341 0.0 4.0 0.00 0.00 0.00 69 1026.2
20240619135019 79 72 0.0 4.0 0.00 0.00 0.00 73 1026.3
20240619134535 78 0 1.0 6.0 0.00 0.00 0.00 73 1026.2
20240619134021 78 86 1.0 6.0 0.00 0.00 0.00 75 1026.2
20240619133522 78 36 1.0 5.0 0.00 0.00 0.00 74 1026.2
20240619133039 77 0 0.0 4.0 0.00 0.00 0.00 75 1026.2
20240619132520 77 0 0.0 3.0 0.00 0.00 0.00 75 1026.1
20240619132022 77 0 0.0 2.0 0.00 0.00 0.00 77 1026.2
20240619131529 76 0 0.0 3.0 0.00 0.00 0.00 77 1026.2
20240619131022 76 92 0.0 3.0 0.00 0.00 0.00 78 1026.2
20240619130520 76 360 0.0 3.0 0.00 0.00 0.00 77 1026.2
20240619130028 75 0 0.0 3.0 0.00 0.00 0.00 79 1026.2
20240619125523 74 0 0.0 3.0 0.00 0.00 0.00 81 1026.2
20240619125021 74 96 0.0 3.0 0.00 0.00 0.00 81 1026.2
20240619124524 74 252 0.0 3.0 0.00 0.00 0.00 81 1026.1
20240619124022 73 0 0.0 6.0 0.00 0.00 0.00 81 1026.1
20240619123521 73 84 0.0 6.0 0.00 0.00 0.00 82 1026.0
20240619123028 72 0 1.0 6.0 0.00 0.00 0.00 82 1026.0
20240619122523 72 0 1.0 4.0 0.00 0.00 0.00 83 1026.0
20240619122020 71 80 0.0 3.0 0.00 0.00 0.00 84 1025.9
20240619121543 71 103 0.0 3.0 0.00 0.00 0.00 84 1025.8
20240619121021 71 0 0.0 4.0 0.00 0.00 0.00 84 1025.8
20240619120521 71 104 1.0 4.0 0.00 0.00 0.00 84 1025.7
20240619120024 70 128 0.0 4.0 0.00 0.00 0.00 85 1025.6
20240619115521 70 0 0.0 4.0 0.00 0.00 0.00 85 1025.7
20240619115021 70 115 0.0 4.0 0.00 0.00 0.00 86 1025.6
20240619114522 70 0 0.0 3.0 0.00 0.00 0.00 86 1025.4
20240619114022 69 0 0.0 3.0 0.00 0.00 0.00 87 1025.4
20240619113520 69 115 0.0 2.0 0.00 0.00 0.00 87 1025.2
20240619113022 69 0 0.0 0.0 0.00 0.00 0.00 88 1025.2
20240619112523 68 0 0.0 1.0 0.00 0.00 0.00 88 1025.2
20240619112022 68 0 0.0 1.0 0.00 0.00 0.00 89 1025.0
20240619111526 68 0 0.0 2.0 0.00 0.00 0.00 89 1024.9
20240619111023 68 0 0.0 2.0 0.00 0.00 0.00 89 1025.0
20240619110524 67 0 0.0 2.0 0.00 0.00 0.00 90 1024.9
20240619110029 67 0 0.0 4.0 0.00 0.00 0.00 90 1024.8
20240619105522 67 90 0.0 4.0 0.00 0.00 0.00 90 1024.9
20240619105021 67 110 0.0 2.0 0.00 0.00 0.00 91 1024.8
20240619104525 67 0 0.0 2.0 0.00 0.00 0.00 91 1024.8
20240619104024 66 78 0.0 2.0 0.00 0.00 0.00 91 1024.7
20240619103521 66 0 0.0 2.0 0.00 0.00 0.00 90 1024.6
20240619103027 66 0 0.0 2.0 0.00 0.00 0.00 90 1024.6
20240619102522 66 0 0.0 0.0 0.00 0.00 0.00 91 1024.6
20240619102023 67 0 0.0 1.0 0.00 0.00 0.00 91 1024.5
20240619101533 66 0 0.0 1.0 0.00 0.00 0.00 91 1024.5
20240619101020 66 0 0.0 2.0 0.00 0.00 0.00 90 1024.6
20240619100522 66 0 0.0 2.0 0.00 0.00 0.00 91 1024.4
20240619100036 66 0 0.0 1.0 0.00 0.00 0.00 91 1024.5
20240619095520 67 117 0.0 2.0 0.00 0.00 0.00 91 1024.3
20240619095020 66 0 0.0 2.0 0.00 0.00 0.00 91 1024.2
20240619094527 66 0 0.0 0.0 0.00 0.00 0.00 91 1024.3
20240619094020 66 0 0.0 0.0 0.00 0.00 0.00 91 1024.3
20240619093520 66 0 0.0 0.0 0.00 0.00 0.00 91 1024.3
20240619093027 66 0 0.0 0.0 0.00 0.00 0.00 91 1024.2
20240619092521 66 0 0.0 0.0 0.00 0.00 0.00 90 1024.2
20240619092022 66 0 0.0 0.0 0.00 0.00 0.00 90 1024.1
20240619091525 67 0 0.0 0.0 0.00 0.00 0.00 90 1024.0
20240619091021 67 0 0.0 2.0 0.00 0.00 0.00 91 1023.9
20240619090520 66 0 0.0 2.0 0.00 0.00 0.00 91 1024.0
20240619090028 66 0 0.0 0.0 0.00 0.00 0.00 90 1024.0
20240619085524 66 0 0.0 1.0 0.00 0.00 0.00 90 1024.0
20240619085023 66 0 0.0 1.0 0.00 0.00 0.00 90 1024.0
20240619084525 66 0 0.0 0.0 0.00 0.00 0.00 90 1024.0
20240619084022 66 0 0.0 0.0 0.00 0.00 0.00 90 1024.0
20240619083520 67 0 0.0 0.0 0.00 0.00 0.00 90 1024.0
20240619083025 67 0 0.0 0.0 0.00 0.00 0.00 90 1024.0
20240619082521 67 0 0.0 0.0 0.00 0.00 0.00 90 1024.1
20240619082021 67 0 0.0 0.0 0.00 0.00 0.00 90 1023.9
20240619081541 67 0 0.0 0.0 0.00 0.00 0.00 90 1024.0
20240619081054 67 0 0.0 0.0 0.00 0.00 0.00 89 1024.0
20240619080519 67 0 0.0 0.0 0.00 0.00 0.00 89 1024.0
20240619080024 67 0 0.0 0.0 0.00 0.00 0.00 89 1024.0
20240619075522 67 0 0.0 0.0 0.00 0.00 0.00 89 1023.9
20240619075020 67 0 0.0 0.0 0.00 0.00 0.00 89 1023.9
20240619074522 67 0 0.0 0.0 0.00 0.00 0.00 89 1023.9
20240619074021 67 0 0.0 0.0 0.00 0.00 0.00 89 1023.7
20240619073520 67 0 0.0 0.0 0.00 0.00 0.00 88 1023.7
20240619073022 67 0 0.0 0.0 0.00 0.00 0.00 88 1023.8
20240619072518 67 0 0.0 0.0 0.00 0.00 0.00 88 1023.7
20240619072021 67 0 0.0 0.0 0.00 0.00 0.00 88 1023.8
20240619071523 67 0 0.0 0.0 0.00 0.00 0.00 88 1023.8
20240619071022 67 0 0.0 0.0 0.00 0.00 0.00 88 1023.8
20240619070520 68 0 0.0 0.0 0.00 0.00 0.00 88 1023.7
20240619070035 68 0 0.0 0.0 0.00 0.00 0.00 88 1023.7
20240619065519 68 0 0.0 0.0 0.00 0.00 0.00 87 1023.7
20240619065021 68 0 0.0 0.0 0.00 0.00 0.00 87 1023.8
20240619064523 68 0 0.0 0.0 0.00 0.00 0.00 87 1023.8
20240619064019 68 0 0.0 0.0 0.00 0.00 0.00 87 1023.8
20240619063518 68 0 0.0 0.0 0.00 0.00 0.00 87 1023.8
20240619063022 68 0 0.0 0.0 0.00 0.00 0.00 87 1023.8
20240619062523 68 0 0.0 0.0 0.00 0.00 0.00 86 1023.9
20240619062021 69 0 0.0 0.0 0.00 0.00 0.00 86 1023.9
20240619061523 69 0 0.0 0.0 0.00 0.00 0.00 86 1023.9
20240619061019 69 0 0.0 0.0 0.00 0.00 0.00 85 1023.9
20240619060521 69 0 0.0 0.0 0.00 0.00 0.00 85 1023.9
20240619060023 69 0 0.0 0.0 0.00 0.00 0.00 85 1023.9
20240619055518 69 0 0.0 0.0 0.00 0.00 0.00 85 1023.9
20240619055020 69 0 0.0 0.0 0.00 0.00 0.00 85 1023.9
20240619054520 69 0 0.0 0.0 0.00 0.00 0.00 84 1024.0
20240619054019 69 0 0.0 0.0 0.00 0.00 0.00 84 1024.1
20240619053519 70 0 0.0 0.0 0.00 0.00 0.00 83 1024.0
20240619053030 70 0 0.0 0.0 0.00 0.00 0.00 83 1024.1
20240619052520 70 0 0.0 2.0 0.00 0.00 0.00 83 1024.1
20240619052020 70 0 0.0 2.0 0.00 0.00 0.00 83 1024.0
20240619051520 70 0 0.0 0.0 0.00 0.00 0.00 82 1024.0
20240619051022 70 0 0.0 0.0 0.00 0.00 0.00 82 1023.9
20240619050521 71 0 0.0 0.0 0.00 0.00 0.00 81 1023.9
20240619050024 71 0 0.0 0.0 0.00 0.00 0.00 81 1024.0
20240619045522 71 0 0.0 2.0 0.00 0.00 0.00 80 1024.1
20240619045025 71 0 0.0 2.0 0.00 0.00 0.00 79 1024.0
20240619044527 71 0 0.0 1.0 0.00 0.00 0.00 79 1024.0
20240619044022 72 0 0.0 2.0 0.00 0.00 0.00 78 1024.0
20240619043522 72 0 0.0 2.0 0.00 0.00 0.00 78 1023.9
20240619043027 72 0 0.0 4.0 0.00 0.00 0.00 78 1024.0
20240619042521 73 0 0.0 4.0 0.00 0.00 0.00 76 1024.0
20240619042020 73 0 0.0 3.0 0.00 0.00 0.00 76 1024.0
20240619041526 73 0 0.0 3.0 0.00 0.00 0.00 76 1024.0
20240619041023 73 0 0.0 3.0 0.00 0.00 0.00 75 1024.1
20240619040520 73 93 0.0 3.0 0.00 0.00 0.00 75 1023.9
20240619040034 73 0 0.0 3.0 0.00 0.00 0.00 75 1024.0
20240619035527 73 0 0.0 3.0 0.00 0.00 0.00 75 1024.1
20240619035020 73 0 0.0 4.0 0.00 0.00 0.00 74 1024.0
20240619034531 74 0 0.0 4.0 0.00 0.00 0.00 74 1023.9
20240619034019 74 0 0.0 2.0 0.00 0.00 0.00 74 1024.0
20240619033519 74 0 0.0 3.0 0.00 0.00 0.00 73 1023.9
20240619033031 74 86 0.0 3.0 0.00 0.00 0.00 73 1023.8
20240619032521 75 0 0.0 3.0 0.00 0.00 0.00 72 1023.7
20240619032022 75 0 0.0 4.0 0.00 0.00 0.00 72 1023.8
20240619031527 76 0 0.0 4.0 0.00 0.00 0.00 71 1023.7
20240619031022 75 0 1.0 4.0 0.00 0.00 0.00 72 1023.7
20240619030520 76 69 0.0 9.0 0.00 0.00 0.00 73 1023.6
20240619030032 76 0 1.0 9.0 0.00 0.00 0.00 73 1023.7
20240619025521 76 0 1.0 5.0 0.00 0.00 0.00 72 1023.8
20240619025020 76 0 0.0 5.0 0.00 0.00 0.00 72 1023.8
20240619024520 76 0 0.0 3.0 0.00 0.00 0.00 72 1023.8
20240619024021 77 0 0.0 3.0 0.00 0.00 0.00 71 1023.6
20240619023520 76 109 0.0 3.0 0.00 0.00 0.00 72 1023.4
20240619023023 77 0 0.0 5.0 0.00 0.00 0.00 71 1023.4
20240619022520 77 0 0.0 5.0 0.00 0.00 0.00 71 1023.4
20240619022020 77 0 0.0 3.0 0.00 0.00 0.00 70 1023.4
20240619021525 78 0 0.0 4.0 0.00 0.00 0.00 70 1023.4
20240619021022 78 0 0.0 4.0 0.00 0.00 0.00 69 1023.4
20240619020520 78 97 0.0 8.0 0.00 0.00 0.00 69 1023.2
20240619020032 78 98 1.0 8.0 0.00 0.00 0.00 69 1023.0
20240619015521 78 0 0.0 6.0 0.00 0.00 0.00 69 1023.0
20240619015021 77 0 0.0 0.0 0.00 0.00 0.00 70 1023.0
20240619014523 78 0 0.0 0.0 0.00 0.00 0.00 69 1022.8
20240619014021 78 0 0.0 0.0 0.00 0.00 0.00 68 1022.7
20240619013520 78 0 0.0 0.0 0.00 0.00 0.00 67 1022.5
20240619013025 79 0 0.0 3.0 0.00 0.00 0.00 66 1022.5
20240619012522 79 0 0.0 3.0 0.00 0.00 0.00 65 1022.6
20240619012019 79 0 0.0 3.0 0.00 0.00 0.00 66 1022.4
20240619011533 80 0 0.0 3.0 0.00 0.00 0.00 64 1022.4
20240619011019 80 0 0.0 4.0 0.00 0.00 0.00 64 1022.2
20240619010519 81 0 0.0 4.0 0.00 0.00 0.00 63 1022.1
20240619010022 81 0 0.0 4.0 0.00 0.00 0.00 62 1021.9
20240619005521 81 0 1.0 4.0 0.00 0.00 0.00 61 1021.8
20240619005022 81 0 0.0 4.0 0.00 0.00 0.00 61 1021.9
20240619004531 81 88 0.0 4.0 0.00 0.00 0.00 61 1021.8
20240619004021 82 0 0.0 4.0 0.00 0.00 0.00 60 1021.9
20240619003519 82 0 0.0 4.0 0.00 0.00 0.00 60 1021.8
20240619003025 82 0 0.0 3.0 0.00 0.00 0.00 59 1021.8
20240619002521 82 0 0.0 4.0 0.00 0.00 0.00 59 1021.6
20240619002021 83 0 0.0 4.0 0.00 0.00 0.00 58 1021.6
20240619001523 83 0 0.0 6.0 0.00 0.00 0.00 57 1021.6
20240619001020 83 0 1.0 6.0 0.00 0.00 0.00 58 1021.6
20240619000522 84 0 0.0 7.0 0.00 0.00 0.00 57 1021.5
20240619000047 84 0 0.0 7.0 0.00 0.00 0.00 56 1021.4
20240618235522 84 0 0.0 4.0 0.00 0.00 0.00 57 1021.4
20240618235019 84 0 0.0 4.0 0.00 0.00 0.00 55 1021.4
20240618234521 84 0 0.0 4.0 0.00 0.00 0.00 56 1021.4
20240618234021 84 74 0.0 6.0 0.00 0.00 0.00 55 1021.3
20240618233520 85 0 0.0 6.0 0.00 0.00 0.00 54 1021.4
20240618233028 85 0 0.0 7.0 0.00 0.00 0.00 53 1021.5
20240618232518 86 0 1.0 7.0 0.00 0.00 0.00 52 1021.5
20240618232020 86 90 1.0 6.0 0.00 0.00 0.00 52 1021.5
20240618231526 87 0 0.0 7.0 0.00 0.00 0.00 51 1021.4
20240618231022 87 121 0.0 7.0 0.00 0.00 0.00 51 1021.4
20240618230520 87 283 0.0 8.0 0.00 0.00 0.00 51 1021.4
20240618230028 87 0 0.0 8.0 0.00 0.00 0.00 51 1021.4
20240618225519 87 65 0.0 8.0 0.00 0.00 0.00 51 1021.4
20240618225019 87 232 2.0 8.0 0.00 0.00 0.00 50 1021.4
20240618224521 87 0 1.0 4.0 0.00 0.00 0.00 49 1021.4
20240618224019 87 102 0.0 2.0 0.00 0.00 0.00 51 1021.3
20240618223519 87 0 0.0 6.0 0.00 0.00 0.00 49 1021.3
20240618223026 88 0 0.0 7.0 0.00 0.00 0.00 48 1021.4
20240618222519 88 9 2.0 7.0 0.00 0.00 0.00 49 1021.4
20240618222019 88 0 0.0 6.0 0.00 0.00 0.00 48 1021.4
20240618221522 87 69 1.0 9.0 0.00 0.00 0.00 49 1021.3
20240618221019 87 98 1.0 9.0 0.00 0.00 0.00 49 1021.4
20240618220519 88 78 2.0 9.0 0.00 0.00 0.00 47 1021.5
20240618220029 90 188 1.0 6.0 0.00 0.00 0.00 46 1021.4
20240618215520 89 114 1.0 4.0 0.00 0.00 0.00 45 1021.5
20240618215020 89 0 0.0 5.0 0.00 0.00 0.00 46 1021.5
20240618214522 88 0 0.0 6.0 0.00 0.00 0.00 47 1021.5
20240618214020 88 0 1.0 6.0 0.00 0.00 0.00 46 1021.5
20240618213519 90 102 1.0 6.0 0.00 0.00 0.00 44 1021.5
20240618213022 90 0 0.0 5.0 0.00 0.00 0.00 47 1021.5
20240618212519 89 0 1.0 8.0 0.00 0.00 0.00 45 1021.6
20240618212020 90 0 2.0 8.0 0.00 0.00 0.00 44 1021.6
20240618211525 90 0 0.0 7.0 0.00 0.00 0.00 45 1021.6
20240618211022 88 0 1.0 7.0 0.00 0.00 0.00 48 1021.7
20240618210519 88 0 0.0 6.0 0.00 0.00 0.00 48 1021.7
20240618210025 90 0 1.0 6.0 0.00 0.00 0.00 45 1021.7
20240618205519 91 0 1.0 8.0 0.00 0.00 0.00 45 1021.7
20240618205022 89 84 1.0 8.0 0.00 0.00 0.00 44 1021.8
20240618204524 90 127 2.0 8.0 0.00 0.00 0.00 45 1021.7
20240618204019 90 0 0.0 4.0 0.00 0.00 0.00 45 1021.9
20240618203519 88 0 0.0 8.0 0.00 0.00 0.00 48 1021.9
20240618203027 88 0 1.0 8.0 0.00 0.00 0.00 47 1021.8
20240618202519 90 91 1.0 6.0 0.00 0.00 0.00 45 1021.9
20240618202019 91 0 1.0 4.0 0.00 0.00 0.00 45 1021.8
20240618201532 92 0 0.0 3.0 0.00 0.00 0.00 42 1021.8
20240618201022 91 103 1.0 4.0 0.00 0.00 0.00 43 1021.9
20240618200521 90 80 1.0 4.0 0.00 0.00 0.00 45 1022.0